AirNav   Air Wisconsin pilot careers
 
 1493 users online  

B04 Garnseys Airport
Schuylerville, New York, USA

GOING TO SCHUYLERVILLE?


FAA INFORMATION EFFECTIVE 06 DECEMBER 2018

Location

FAA Identifier: B04
Lat/Long: 43-04-03.5150N / 073-35-01.8250W
43-04.058583N / 073-35.030417W
43.0676431 / -73.5838403
(estimated)
Elevation: 100 ft. / 30 m (estimated)
Variation: 14W (1985)
From city: 1 mile S of SCHUYLERVILLE, NY
Time zone: UTC -5 (UTC -4 during Daylight Saving Time)
Zip code: 12871

Airport Operations

Airport use: Open to the public
Activation date: 06/1945
Control tower: no
ARTCC: BOSTON CENTER
FSS: BURLINGTON FLIGHT SERVICE STATION
NOTAMs facility: BTV (NOTAM-D service available)
Attendance: MAY-SEP DAYLIGHT HOURS
Wind indicator: yes
Segmented circle: no

Airport Communications

CTAF: 122.9
WX AWOS-3 at 5B2 (12 nm W): 132.025 (518-884-9289)
WX ASOS at GFL (16 nm N): 119.925 (518-743-1728)
WX ASOS at DDH (18 nm SE): 135.925 (802-442-6059)
WX AWOS-3 at SCH (20 nm SW): 119.275 (518-399-6586)

Nearby radio navigation aids

VOR radial/distance  VOR name  Freq  Var
CAMr307/11.4CAMBRIDGE VOR/DME115.0014W
GFLr190/16.5GLENS FALLS VORTAC110.2014W
ALBr040/21.5ALBANY VORTAC115.3013W

 
NDB name  Hdg/Dist  Freq  Var  ID
GANSE189/11.320914WGF --. ..-.
HUNTER064/20.035614WHEU .... . ..-
JOHNSTOWN097/33.052314WJJH .--- .--- ....

Airport Services

Parking: tiedowns
Airframe service: NONE
Powerplant service: NONE

Runway Information

Runway 2/20

Dimensions: 2500 x 90 ft. / 762 x 27 m
Surface: turf, in good condition
RUNWAY 2  RUNWAY 20
Latitude: 43-03.853500N43-04.263667N
Longitude: 073-35.052667W073-35.008167W
Elevation: 90.0 ft.95.0 ft.
Traffic pattern: leftleft
Runway heading: 019 magnetic, 005 true199 magnetic, 185 true
Obstructions: 10 ft. road10 ft. road

Runway 2W/20W

Dimensions: 9999 x 750 ft. / 3048 x 229 m
Surface: water
RUNWAY 2W  RUNWAY 20W
Traffic pattern: leftleft

Airport Ownership and Management from official FAA records

Ownership: Privately-owned
Owner: MR. ZENE GARNSEY
RFD 952 - ROUTE 4 SOUTH
SCHUYLERVILLE, NY 12871
Phone 518-695-3346
Manager: MR. ZENE GARNSEY
RFD 952 - ROUTE 4 SOUTH
SCHUYLERVILLE, NY 12871
Phone 518-695-3346

Airport Operational Statistics

Aircraft based on the field: 3
Single engine airplanes: 3
    
Aircraft operations: avg 21/week *
73% local general aviation
27% transient general aviation
* for 12-month period ending 14 August 2018

Additional Remarks

TURF STRIP MAY BE SOFT IN SPRING.
ARPT OPEN DALGT HRS ONLY.
NUMEROUS BLDGS IN APCH TO RY 20.
TIEDOWNS LOCATED IMMED. NORTH OF DRIVEWAY ADJ TO RY 20 END.

Instrument Procedures

There are no published instrument procedures at B04.

Some nearby airports with instrument procedures:

5B2 - Saratoga County Airport (12 nm W)
KGFL - Floyd Bennett Memorial Airport (16 nm N)
KDDH - William H Morse State Airport (18 nm SE)
KSCH - Schenectady County Airport (20 nm SW)
KALB - Albany International Airport (21 nm SW)
 
Loc | Ops | Rwys | IFR | FBO | Links
Com | Nav | Svcs | Stats | Notes


 
Area around B04 (Garnseys Airport)
 
Road maps at: MapQuest Bing Google
 
Aerial photo
WARNING: Photo may not be current or correct
Aerial photo of B04 (Garnseys Airport)
Photo taken 12-Sep-2007

Do you have a better or more recent aerial photo of Garnseys Airport that you would like to share? If so, please send us your photo.

 
Sectional chart

 
Airport distance calculator
Flying to Garnseys Airport? Find the distance to fly.

From to B04

Sunrise and sunset
Times for 18-Dec-2018
 Local
(UTC-5)
 Zulu
(UTC)
Morning civil twilight06:4911:49
Sunrise07:2212:22
Sunset16:2021:20
Evening civil twilight16:5221:52

Current date and time
Zulu (UTC)  18-Dec-2018 15:35:23
Local (UTC-5)  18-Dec-2018 10:35:23
 
METAR
KGFL 
16nm N 
181453Z AUTO 31013KT 10SM CLR M04/M14 A3006 RMK AO2 SLP187 T10441139 51025
KDDH 
18nm SE 
181454Z AUTO 32008G19KT 10SM OVC041 M07/M14 A2999 RMK AO2 SLP167 T10671144 51025
KSCH 
20nm SW 
181446Z 30015G19KT 15SM CLR M06/M13 A3008
KALB 
21nm SW 
181451Z 31017G26KT 10SM FEW040 FEW070 M04/M13 A3008 RMK AO2 PK WND 32029/1409 SLP189 ACSL NE-E T10441133 51021
KAQW 
29nm SE 
181452Z AUTO VRB05G17KT 10SM BKN036 OVC043 M07/M13 A2999 RMK AO2 PK WND 27027/1401 SLP167 T10671133 51026
TAF
KGFL 
16nm N 
181120Z 1812/1912 32014G24KT P6SM FEW050 SCT250 FM190000 VRB04KT P6SM SCT150
NOTAMs
Click for the latest NOTAMs
NOTAMs are issued by the DoD/FAA and will open in a separate window not controlled by AirNav.

 

 
 

Would you like to see your business listed on this page?

 If your business provides an interesting product or service to pilots, flight crews, aircraft, or users of the Garnseys Airport, you should consider listing it here.  To start the listing process, click on the button below
 
Add a business
 

Other Pages about Garnseys Airport

Update a link
 
Copyright © AirNav, LLC. All rights reserved. Privacy Policy  Contact